Tracking 19575 objects as of 20-Feb-2019
HD Live streaming from Space Station
objects crossing your sky now

BRAZILSAT B2

Track BRAZILSAT B2 now!
BRAZILSAT B2 is classified as:


NORAD ID: 23536
Int'l Code: 1995-016A
Perigee: 36,063.2 km
Apogee: 36,108.2 km
Inclination: 8.0 °
Period: 1,451.0 minutes
Semi major axis: 42456 km
RCS: 7.5458 m2 (large)
Launch date: March 28, 1995
Source: Brazil (BRAZ)
Launch site: FRENCH GUIANA (FRGUI)

24 C-band; several X-band.
aabbcc
Your satellite tracking list
Your tracking list is empty




NASA's NSSDC Master Catalog

Two Line Element Set (TLE):
1 23536U 95016A   19050.88792972 -.00000307 +00000-0 +00000-0 0  9998
2 23536 007.9605 047.9201 0005302 264.0563 285.6810 00.99239339087559
Source of the keplerian elements: AFSPC